Tracking 18984 objects as of 24-Feb-2018
HD Live streaming from Space Station
objects crossing your sky now

FENGYUN 1C DEB

Track FENGYUN 1C DEB now!
10-day predictions


NORAD ID: 33655
Int'l Code: 1999-025DEQ
Perigee: 647.0 km
Apogee: 803.4 km
Inclination: 98.9 °
Period: 99.2 minutes
Semi major axis: 7096 km
RCS: 0.0112 m2 (small)
Launch date: May 10, 1999
Source: People's Republic of China (PRC)
Launch site: Taiyaun Space Center, China (TSC)

Note: This is SATELLITE DEBRIS
aabbcc
Your satellite tracking list
Your tracking list is empty




NASA's NSSDC Master Catalog

Two Line Element Set (TLE):
1 33655U 99025DEQ 18054.78738003  .00000619  00000-0  15316-3 0  9996
2 33655  98.8681 257.0418 0110215 111.1451 250.1564 14.52325252552517
Source of the keplerian elements: AFSPC